Regional Weather Roundup
Issued by NWS

Home | Current Version | Previous Version | Text Only | Print | Product List | Glossary Off
Versions: 1 2 3 4 5 6 7 8 9 10 11 12 13 14 15 16 17 18 19 20 21 22 23 24 25 26 27 28 29 30 31 32 33 34 35 36 37 38 39 40 41 42 43 44 45 46 47 48 49 50

000
ASUS43 KMKX 180220
RWRWI

WISCONSIN REGIONAL WEATHER ROUNDUP
NATIONAL WEATHER SERVICE MILWAUKEE/SULLIVAN WI
800 PM CST SUN DEC 17 2017

NOTE: "FAIR" INDICATES FEW OR NO CLOUDS BELOW 12,000 FEET WITH NO
SIGNIFICANT WEATHER AND/OR OBSTRUCTIONS TO VISIBILITY.

WIZ001-002-006>008-014>016-023>028-180300-
NORTHWEST WISCONSIN

CITY           SKY/WX    TMP DP  RH WIND       PRES   REMARKS
SUPERIOR ARPT  CLOUDY    26  22  84 SW6       29.96S WCI  19
ASHLAND        CLOUDY    28  24  85 SW5       29.96S WCI  23
HAYWARD        CLOUDY    26  23  88 S3        29.95S
SIREN          CLOUDY    26  24  93 CALM      29.97R FOG
CUMBERLAND     CLOUDY    27  27 100 S5        29.96S FOG     WCI  21
RICE LAKE      CLOUDY    28  27  97 CALM      29.98R FOG
CHETEK         CLOUDY    28  27  96 S5        29.97R WCI  22
LADYSMITH      CLOUDY    28  26  94 S6        29.98R WCI  22
EAU CLAIRE     CLOUDY    28  26  92 S5        29.98R FOG     WCI  23
MENOMONIE      CLOUDY    28  27  95 SW3       29.99S FOG
NEW RICHMOND   CLOUDY    27  24  89 S6        29.98S WCI  20
OSCEOLA        CLOUDY    27  27 100 CALM      30.00F FOG
$$

WIZ003>005-009-010-017-018-180300-
NORTH CENTRAL WISCONSIN

CITY           SKY/WX    TMP DP  RH WIND       PRES   REMARKS
MANITOWISH WTR CLOUDY    24  24 100 S5        29.92S WCI  18
ARBOR VITAE    CLOUDY    27  26  96 SW6       29.93S FOG     WCI  20
WOODRUFF       CLOUDY    27  26  96 SW6       29.93S FOG     WCI  20
RHINELANDER    CLOUDY    26  26 100 SW5       29.94R FOG     WCI  20
EAGLE RIVER    CLOUDY    26  26 100 CALM      29.92F FOG
LAND O LAKES   CLOUDY    26  25  97 CALM      29.93S
PHILLIPS       CLOUDY    25  25 100 SW3       29.93S
TOMAHAWK       CLOUDY    26  24  96 CALM      29.95R FOG
MEDFORD        CLOUDY    25  25  97 S6        29.94S FOG     WCI  18
MERRILL        CLOUDY    27  26  96 S3        29.96S FOG
$$

WIZ029-030-035-036-043>047-180300-
CENTRAL WISCONSIN

CITY           SKY/WX    TMP DP  RH WIND       PRES   REMARKS
WAUSAU         CLOUDY    27  26  96 S7        29.96R FOG     WCI  19
MOSINEE        FOG       27  27 100 SE3       29.98R VSB 1/4
MARSHFIELD     FOG       28  28 100 CALM      29.95S VSB 1/4
STEVENS POINT  FOG       26  26 100 SE3       29.98S VSB 1/2
WAUPACA        CLOUDY    30  27  87 CALM      30.00S
WAUTOMA        CLOUDY    29  26  89 SE3       30.00S
WISC RAPIDS    FOG       28  27  96 CALM      29.99S VSB 1/2
CAMP DOUGLAS   CLOUDY    31  29  91 CALM      29.97S
$$

WIZ011>013-019>022-031-037>040-048>050-180300-
NORTHEAST WISCONSIN

CITY           SKY/WX    TMP DP  RH WIND       PRES   REMARKS
ANTIGO         CLOUDY    25  25 100 SW3       29.95S FOG
SHAWANO        FOG       29  28  94 CALM      29.98F VSB 1
OCONTO         CLOUDY    28  27  94 W3        29.99F
STURGEON BAY   CLOUDY    30  28  92 SW5       29.99S WCI  25
GREEN BAY      CLOUDY    30  28  92 SW5       29.99F FOG     WCI  25
MANITOWOC      CLOUDY    31  29  92 W3        30.00F FOG
APPLETON       CLOUDY    28  28 100 CALM      29.97F
CLINTONVILLE   NOT AVBL
OSHKOSH        CLOUDY    30  27  88 S6        30.00R FOG     WCI  24
$$

WIZ032>034-041-042-053>061-180300-
SOUTHWEST WISCONSIN

CITY           SKY/WX    TMP DP  RH WIND       PRES   REMARKS
LA CROSSE      CLOUDY    32  29  88 CALM      29.99S FOG
SPARTA         CLOUDY    29  29  99 CALM      29.99S FOG
VIROQUA        CLOUDY    30  30 100 CALM      29.96F
BOSCOBEL       CLOUDY    34  29  82 CALM      30.00S
PRAIRIE DU CHI CLOUDY    32  28  85 CALM      29.99S FOG
PLATTEVILLE    CLOUDY    34  33  99 SE3       29.97F
$$

WIZ056-057-062-063-064-067-068-180300-
SOUTH CENTRAL WISCONSIN

CITY           SKY/WX    TMP DP  RH WIND       PRES   REMARKS
REEDSBURG      CLOUDY    31  30  96 CALM      29.98F
BARABOO/DELLS  CLOUDY    31  29  92 CALM      29.98F FOG
LONE ROCK      CLOUDY    33  31  92 CALM      29.99F FOG
MINERAL POINT  PTCLDY    34  34 100 CALM      29.96F FOG
MADISON        CLOUDY    32  29  88 SE5       29.99F FOG     WCI  27
MIDDLETON      CLOUDY    33  31  93 CALM      29.99F
WATERTOWN      CLOUDY    32  32 100 CALM      29.99F FOG
MONROE         CLOUDY    32  32 100 CALM      29.97S FOG
JANESVILLE     CLOUDY    36  34  93 CALM      29.98F FOG
$$

WIZ051-052-058>065-066-070>072-180300-
SOUTHEAST WISCONSIN

CITY           SKY/WX    TMP DP  RH WIND       PRES   REMARKS
MILWAUKEE      CLOUDY    35  33  92 NW5       29.98F FOG     WCI  31
WAUKESHA       CLOUDY    30  30 100 NW2       29.99F FOG
MILWAUKEE/TIMM FOG       32  30  93 NW3       30.01R VSB 1
RACINE         CLOUDY    34  32  92 CALM      30.00F FOG
BURLINGTON       N/A     45  45 100 CALM      29.99S FOG
KENOSHA        CLOUDY    35  31  85 CALM      29.99S FOG
FOND DU LAC    CLOUDY    31  27  85 CALM      30.01R
SHEBOYGAN      CLOUDY    31  31 100 W5        30.00R FOG     WCI  26
WEST BEND      FOG       32  32 100 W3        29.99F VSB 1/2
JUNEAU         CLOUDY    30  29  95 CALM      30.00F FOG
$$

LSZ147-162-180300-
LAKE SUPERIOR

STATION/POSITION TIME  TEMP    WIND        PRES    WAVE
                       AIR SEA DIR/SP/G            HT/PER
                 (UTC) (F)     (DEG/KT/KT) (MB)    (FT/S)
DEVILS ISLAND    0200   29     220/ 11/ 15 1014.6F
SAXON HARBOR     0130   27                 1013.9F
$$

LMZ867-665-643>646-180300-
LAKE MICHIGAN

STATION/POSITION TIME  TEMP    WIND        PRES    WAVE
                       AIR SEA DIR/SP/G            HT/PER
                 (UTC) (F)     (DEG/KT/KT) (MB)    (FT/S)
NORTHPORT PIER   0140   31        CALM     1015.2F
KEWAUNEE LAKESHO 0200   30     270/  4/  5 1014.8
SHEBOYGAN LAKESH 0200   32     270/  4/  5 1016.6R
PORT WASHINGTON  0140   33     290/  4/  6 1016.9R
MILWAUKEE LAKESH 0200   34     300/  5/  7   N/A
KENOSHA   LAKESH 0200   35     270/  1/  2 1015.6
$$

TC  - TEMPERATURE IN CELSIUS
VSB - VISIBILITY IN STATUTE MILES
WCI - WIND CHILL INDEX
HX  - HEAT INDEX





USA.gov is the U.S. government's official web portal to all federal, state and local government web resources and services.